Regional Weather Roundup
Issued by NWS

Home | Current Version | Previous Version | Graphics & Text | Print | Product List | Glossary On
Versions: 1 2 3 4 5 6 7 8 9 10 11 12 13 14 15 16 17 18 19 20 21 22 23 24 25 26 27 28 29 30 31 32 33 34 35 36 37 38 39 40 41 42 43 44 45 46 47 48 49 50
000
ASUS43 KLOT 102258
RWRIL

ILLINOIS REGIONAL WEATHER ROUNDUP
NATIONAL WEATHER SERVICE CHICAGO/ROMEOVILLE IL
600 PM CDT THU JUL 10 2014

NOTE: "FAIR" INDICATES FEW OR NO CLOUDS BELOW 12,000 FEET WITH NO
SIGNIFICANT WEATHER AND/OR OBSTRUCTIONS TO VISIBILITY.

* THESE STATIONS ARE NOT UNDER NWS QUALITY CONTROL. THEY ALSO MAY NOT
  REPORT WEATHER SUCH AS PRECIPITATION OR FOG.

ILZ001-002-007-009-015-016-024-110000-
NORTHWEST ILLINOIS

CITY           SKY/WX    TMP DP  RH WIND       PRES   REMARKS
MOLINE         SUNNY     80  59  48 S6        30.09F HX  81
$$

ILZ003-004-008-010-011-017-018-110000-
NORTH CENTRAL ILLINOIS

CITY           SKY/WX    TMP DP  RH WIND       PRES   REMARKS
ROCKFORD       NOT AVBL
$$

ILZ005-006-012>014-019>023-110000-
NORTHEAST ILLINOIS

CITY           SKY/WX    TMP DP  RH WIND       PRES   REMARKS
CHICAGO-OHARE  MOSUNNY   75  52  44 E10       30.14S
CHICAGO-MIDWAY MOSUNNY   75  51  43 E8        30.15R
AURORA         SUNNY     80  54  40 SW5       30.13F HX  80
WAUKEGAN       SUNNY     69  55  60 E9        30.14F
DUPAGE AIRPORT MOSUNNY   75  56  51 E8        30.13S
WHEELING       SUNNY     74  53  48 E8        30.16S
NORTHERLY ISL    N/A     70  56  61 E8          N/A
$$

LMZ740>746-110000-
SOUTHERN LAKE MICHIGAN

STATION/POSITION SKY/WX   TEMP    WIND        PRES    VSBY  WAVE
                          AIR SEA DIR/SP/G                  HT/PER
                          (F)     (DEG/KT/KT) (MB)    (MI)  (FT/S)
SOUTHERN BUOY              64 62  120/  2/  4 1021.7F         0
WAUKEGAN HARBOR            68     130/  8/ 10 1022.4S
HARRISON CRIB              67     100/ 11/ 12   N/A
BURNHAM HARBOR             70      90/  9/ 10   N/A
CALUMET HARBOR             70      70/  9/ 11 1021.8F
MICHIGAN CITY              68      20/  9/ 10   N/A
$$

ILZ025>027-034>036-040-047-049-050-058-095>099-110000-
WEST-CENTRAL ILLINOIS

CITY           SKY/WX    TMP DP  RH WIND       PRES   REMARKS
QUINCY         MOSUNNY   80  54  40 SE12      30.10S HX  80
$$

ILZ028>032-037-038-041>044-048-051>054-059>061-110000-
CENTRAL ILLINOIS

CITY           SKY/WX    TMP DP  RH WIND       PRES   REMARKS
PEORIA         NOT AVBL
SPRINGFIELD    SUNNY     80  55  42 E5        30.12F HX  80
TAYLORVILLE    NOT AVBL
$$

ILZ033-039-045-046-055>057-062-063-110000-
EAST-CENTRAL ILLINOIS

CITY           SKY/WX    TMP DP  RH WIND       PRES   REMARKS
CHAMPAIGN      MOSUNNY   78  54  43 E8        30.14S
MATTOON        SUNNY     78  52  40 NE6       30.11F
$$

ILZ079-100>102-110000-
SOUTHWEST ILLINOIS

CITY           SKY/WX    TMP DP  RH WIND       PRES   REMARKS
ALTON          MOSUNNY   81  57  44 E7        30.10F HX  81
CAHOKIA*       MOSUNNY   83  57  41 E8        30.08F HX  82
$$

ILZ064>066-069>071-074>076-080>082-084>086-088>090-092>094-110000-
SOUTH-CENTRAL ILLINOIS

CITY           SKY/WX    TMP DP  RH WIND       PRES   REMARKS
CARBONDALE     CLOUDY    82  61  48 CALM      30.08S HX  83
MARION         PTSUNNY   81  64  57 NE6       30.09S HX  82
$$

ILZ067-068-072-073-078-083-087-091-110000-
SOUTHEAST ILLINOIS

CITY           SKY/WX    TMP DP  RH WIND       PRES   REMARKS
$$

ABBREVIATIONS USED IN REMARKS
   TC - TEMPERATURE IN CELSIUS
  WCI - WIND CHILL INDEX
   HX - HEAT INDEX
  VSB - VISIBILITY
$$



USA.gov is the U.S. government's official web portal to all federal, state and local government web resources and services.